Regional Weather Roundup
Issued by NWS Upton, NY

Current Version | Previous Version | Graphics & Text | Print | Product List | Glossary Off
Versions: 1 2 3 4 5 6 7 8 9 10 11 12 13 14 15 16 17 18 19 20 21 22 23 24 25 26 27 28 29 30 31 32 33 34 35 36 37 38 39 40 41 42 43 44 45 46 47 48 49 50

000
ASUS41 KOKX 250209
RWROKX

REGIONAL WEATHER ROUNDUP
NATIONAL WEATHER SERVICE NEW YORK NY
1000 PM EDT MON JUL 24 2017

NOTE: "FAIR" INDICATES FEW OR NO CLOUDS BELOW 12,000 FEET WITH NO
SIGNIFICANT WEATHER AND/OR OBSTRUCTIONS TO VISIBILITY.

NYZ071-072-176-178-NJZ106-104-250300-
NEW YORK CITY METRO AREA

CITY           SKY/WX    TMP DP  RH WIND       PRES   REMARKS
Central Park   CLOUDY    65  58  78 VRB7      29.94R
Bronx Bot Gard   N/A     63  55  77 E8        29.94R
LaGuardia APRT MOCLDY    66  59  78 NE16      29.91R
Kennedy INTL   CLOUDY    64  62  93 NE7       29.92R
Breezy Point     N/A     63 N/A N/A E8          N/A
Newark/Liberty CLOUDY    67  60  78 E7        29.90R
Teterboro      CLOUDY    66  58  75 NE7       29.90R
$$

NYZ177-179-078>081-250300-
LONG ISLAND NEW YORK

CITY           SKY/WX    TMP DP  RH WIND       PRES   REMARKS
Jones Beach      N/A     63 N/A N/A NE17        N/A
Matinecock PT    N/A     63 N/A N/A NE17        N/A
Farmingdale    CLOUDY    63  57  81 NE8       29.92R
MacArthur/ISP  CLOUDY    63  58  83 NE10      29.91R
Shirley        CLOUDY    63  58  83 VRB3      29.92S
Mt Sinai Harb    N/A    N/A N/A N/A NE8         N/A
Westhampton    CLOUDY    62  55  77 NE12      29.93R
East Hampton   CLOUDY    60  56  87 NE6       29.92R
Montauk          N/A     62  58  86 N12G21    29.93R
$$

NYZ052-065-067-250300-
HUDSON VALLEY

CITY           SKY/WX    TMP DP  RH WIND       PRES   REMARKS
White Plains   CLOUDY    60  55  83 NE7       29.93R
Larchmont Harb   N/A     63 N/A N/A N15         N/A
Croton O-T Hud   N/A     61 N/A N/A E6G13       N/A
Newburgh       CLOUDY    63  57  82 E9        29.93R
Montgomery     CLOUDY    63  58  83 NE6       29.93R
Poughkeepsie   CLOUDY    61  55  81 E3        29.92R
Albany         LGT RAIN  62  55  77 SE3       29.93R
$$

NJZ001-105-106-008-010-013-015-019>022-104-250300-
NEW JERSEY

CITY           SKY/WX    TMP DP  RH WIND       PRES   REMARKS
Newark/Liberty CLOUDY    67  60  78 E7        29.90R
Teterboro      CLOUDY    66  58  75 NE7       29.90R
Caldwell       CLOUDY    66  60  81 E7        29.92R
Somerville     CLOUDY    65  64  97 CALM      29.89R
Linden         CLOUDY    66  61  85 CALM      29.92R
Perth Amboy      N/A     64 N/A N/A E10         N/A
Sussex         CLOUDY    64  63  96 E3        29.91R
Andover          N/A     64  62  93 CALM      29.92R
Trenton        LGT RAIN  66  64  93 E6        29.90R
Millville      CLOUDY    71  70  96 E10       29.89R
Atlantic City  CLOUDY    70  66  87 N13       29.93R
Wrightstown    LGT RAIN  65  63  93 S6        29.90R
Toms River     LGT RAIN  65  64  97 CALM      29.93R
Belmar         RAIN      64  62  93 SE6       29.94R
$$

PAZ047>061-062-071-250300-
EASTERN PENNSYLVANIA

CITY           SKY/WX    TMP DP  RH WIND       PRES   REMARKS
Philadelphia   CLOUDY    70  68  93 E10       29.90S
Allentown      CLOUDY    69  66  90 E5        29.90R
Scranton       CLOUDY    69  66  90 CALM      29.88R
$$

CTZ002-004>006-009-010-012-RIZ004-006-007-MAZ004-011-015-250300-
SOUTHERN NEW ENGLAND
 IN CT

CITY           SKY/WX    TMP DP  RH WIND       PRES   REMARKS
Bradley INTL   CLOUDY    58  56  93 N7        29.96R
Hartford       CLOUDY    60  56  86 N8        29.94R
Danbury        CLOUDY    60  55  83 NE7       29.95R
Wtrbury/Oxford CLOUDY    57  52  82 NE5       29.95R
Bridgeport     LGT RAIN  62  56  80 NE9       29.93R
Meriden        CLOUDY    60  56  86 N5        29.94R
New Haven      CLOUDY    61  55  81 N9        29.93R
Chester        MOCLDY    59  55  88 NE8       29.94R
Groton         CLOUDY    61  56  83 N8        29.92R
Wilimantic     CLOUDY    61  56  83 NE8       29.94R

 IN RI

CITY           SKY/WX    TMP DP  RH WIND       PRES   REMARKS
Providence     CLOUDY    60  59  96 NE14      29.92S
Block Island   CLOUDY    61  58  90 N12       29.92R
Westerly       CLOUDY    61  57  87 N9        29.93R
 IN MA

CITY           SKY/WX    TMP DP  RH WIND       PRES   REMARKS
Boston         LGT RAIN  59  58  96 N12       29.94R FOG
Worcester      CLOUDY    53  52  96 NE13G23   29.96S FOG
Westfield      CLOUDY    58  56  93 N10       29.96R
Provincetown   LGT RAIN  59  57  93 NE15G26   29.89R FOG
Nantucket      CLOUDY    65  65 100 N18       29.83R
$$

ANZ330-335-338-340-345-350-353-355-250300-
COASTAL MARINE OBSERVATIONS


STATION/POSITION TIME  SKY/WX   TEMP    WIND        PRES    VSBY  WAVE
                                AIR SEA DIR/SP/G                  HT/PER
                 (UTC)          (F)     (DEG/KT/KT) (MB)    (MI)  (FT/S)
NY HARB ENTRANCE 0050            66 73   50/ 16/ 17 1010.9          4/ 8
20 S FIRE ISLAND 0150            66 74   50/ 17/ 21 1011.3          5/ 6
GREAT SOUTH BAY  0130            64 78   40/ 12/ 16   N/A
23 SSW MONTAUK P 0050            63 72              1012.3          5/ 6
15 E BARNEGAT LI 0130               72                N/A           5/ 6
HUDSON CANYON    0050            70 76   10/ 12/ 16 1010.8          6/ 8
KINGS POINT      0136            63 72   90/  5/  9 1012.6
EXECUTION ROCKS  0145            65      80/ 16/ 19   N/A
CENTRAL LI SOUND NOT AVBL
EASTERN LI SOUND NOT AVBL
ROBBINS REEF     0136                    80/ 12/ 15 1012.9
$$


>>>>>>>>>>>>>>>>>>>>>>>>>>>> KEY <<<<<<<<<<<<<<<<<<<<<<<<<<<
>                                                          <
>     SKY/WX - Sky Condition/Present Weather               <
>     TMP    - Temperature in Fahrenheit                   <
>     DP     - Dew Point in Fahrenheit                     <
>     RH     - Relative Humidity in Percent                <
>     WIND   - Direction (from) and Speed in MPH           <
>     PRES   - Mean Sea Level Pressure (inches of Hg)      <
>     WCI    - Wind Chill Index                            <
>     VSB    - VISIBILITY IN MILES                         <
>     HX     - HEAT INDEX                                  <
>     TC     - TEMPERATURE IN CELSIUS                      <
>     VRB    - VARIABLE WIND DIRECTION                     <
>                                                          <
>>>>>>>>>>>>>>>>>>>>>>>>>>>> KEY <<<<<<<<<<<<<<<<<<<<<<<<<<<



USA.gov is the U.S. government's official web portal to all federal, state and local government web resources and services.